Dayton Wright, OH

7:31 AM EST on December 12, 2017 (GMT -0500)
Dayton-Wright Brothers

Weather History for KMGY - April, 2014

Change the Weather History Date:

Friday, April 25, 2014

  Actual Average (KFFO) Record (KFFO)
Temperature  
Mean Temperature 56 °F -  
Max Temperature 63 °F 64 °F 82 °F (2008)
Min Temperature 51 °F 42 °F 31 °F (2013)
Degree Days  
Heating Degree Days 8    
Growing Degree Days 6 (Base 50)    
Moisture  
Dew Point 46 °F    
Average Humidity 73    
Maximum Humidity 97    
Minimum Humidity 28    
Precipitation  
Precipitation 0.15 in - - ()
Sea Level Pressure  
Sea Level Pressure 29.73 in    
Wind  
Wind Speed 10 mph (SW)    
Max Wind Speed 21 mph    
Max Gust Speed 32 mph    
Visibility 9 miles    
Events Rain    
Averages and records for this station are not official NWS values.
T = Trace of Precipitation, MM = Missing Value Source: NWS Daily Summary

Daily Weather History Graph

Daily Weather History Graph

Search for Another Location

Airport or City:

Trip Planner

Search our weather history database for the weather conditions in past years. The results will help you decide how hot, cold, wet, or windy it might be!

Date:

Astronomy

Apr. 25, 2014 Rise Set
Actual Time 6:45 AM EDT 8:24 PM EDT
Civil Twilight 6:16 AM EDT 8:53 PM EDT
Nautical Twilight 5:42 AM EDT 9:28 PM EDT
Astronomical Twilight 5:05 AM EDT 10:05 PM EDT
Moon 4:32 AM EDT (4/25) 4:46 PM EDT (4/25)
Length of Visible Light 14h 36m
Length of Day
13h 39m
Waning Crescent, 15% of the Moon is Illuminated
Apr 25
Waning Crescent
Apr 29
New
May 6
First Quarter
May 14
Full
May 21
Last Quarter

Hourly Weather History & Observations

Time (EDT) Temp. Dew Point Humidity Pressure Visibility Wind Dir Wind Speed Gust Speed Precip Events Conditions
12:53 AM 55.9 °F 25.0 °F 30% 29.77 in 10.0 mi ESE 9.2 mph - N/A   Clear
1:53 AM 57.0 °F 24.1 °F 28% 29.73 in 10.0 mi ESE 10.4 mph - N/A   Mostly Cloudy
2:53 AM 57.0 °F 24.1 °F 28% 29.69 in 10.0 mi SE 11.5 mph - N/A   Overcast
3:53 AM 57.9 °F 26.1 °F 30% 29.67 in 10.0 mi SSE 6.9 mph - N/A   Mostly Cloudy
4:53 AM 57.9 °F 30.0 °F 35% 29.67 in 10.0 mi SSE 10.4 mph - N/A   Overcast
5:53 AM 51.1 °F 46.9 °F 86% 29.66 in 8.0 mi SSE 11.5 mph - 0.05 in Rain Light Rain
6:53 AM 53.1 °F 52.0 °F 96% 29.65 in 8.0 mi WSW 4.6 mph - 0.04 in   Mostly Cloudy
7:53 AM 54.0 °F 53.1 °F 97% 29.64 in 6.0 mi SSE 12.7 mph - 0.02 in Rain Light Rain
8:32 AM 55.0 °F 53.1 °F 93% 29.65 in 7.0 mi SSE 11.5 mph - 0.01 in   Overcast
8:43 AM 54.0 °F 52.0 °F 93% 29.65 in 10.0 mi SSE 12.7 mph - 0.01 in   Overcast
8:53 AM 54.0 °F 51.1 °F 90% 29.65 in 8.0 mi SSE 10.4 mph - 0.01 in Rain Light Rain
9:40 AM 55.0 °F 52.0 °F 89% 29.64 in 10.0 mi South 9.2 mph - 0.03 in   Overcast
9:53 AM 55.0 °F 53.1 °F 93% 29.64 in 10.0 mi South 9.2 mph - 0.03 in   Overcast
10:06 AM 55.0 °F 53.1 °F 93% 29.65 in 9.0 mi South 11.5 mph - N/A   Overcast
10:53 AM 55.9 °F 54.0 °F 93% 29.65 in 8.0 mi SSW 9.2 mph - N/A   Overcast
11:44 AM 57.9 °F 55.9 °F 93% 29.66 in 5.0 mi WSW 9.2 mph - N/A   Overcast
11:51 AM 57.2 °F 55.4 °F 94% 29.67 in 6.0 mi WSW 10.4 mph - N/A   Overcast
11:53 AM 57.9 °F 55.9 °F 93% 29.67 in 6.0 mi West 8.1 mph - N/A   Overcast
12:11 PM 57.9 °F 55.0 °F 90% 29.67 in 7.0 mi WNW 11.5 mph - N/A   Overcast
12:20 PM 57.9 °F 55.0 °F 90% 29.67 in 6.0 mi WNW 11.5 mph - 0.00 in Rain Light Rain
12:27 PM 57.0 °F 55.0 °F 93% 29.68 in 7.0 mi WNW 11.5 mph 18.4 mph 0.00 in Rain Light Rain
12:38 PM 57.0 °F 54.0 °F 89% 29.69 in 10.0 mi NW 13.8 mph 24.2 mph 0.00 in   Overcast
12:53 PM 57.0 °F 54.0 °F 89% 29.69 in 10.0 mi NW 10.4 mph 21.9 mph 0.00 in   Overcast
1:26 PM 57.9 °F 53.1 °F 84% 29.71 in 10.0 mi NW 15.0 mph 24.2 mph N/A   Overcast
1:53 PM 60.1 °F 53.1 °F 78% 29.71 in 10.0 mi WNW 13.8 mph 25.3 mph N/A   Overcast
2:53 PM 57.9 °F 51.1 °F 78% 29.77 in 8.0 mi WNW 17.3 mph 26.5 mph N/A   Overcast
3:53 PM 59.0 °F 48.0 °F 67% 29.80 in 10.0 mi West 17.3 mph 26.5 mph N/A   Mostly Cloudy
4:14 PM 60.1 °F 48.0 °F 64% 29.81 in 10.0 mi NW 11.5 mph 23.0 mph N/A   Scattered Clouds
4:53 PM 62.1 °F 42.1 °F 48% 29.81 in 10.0 mi NW 20.7 mph 32.2 mph N/A   Partly Cloudy
5:53 PM 62.1 °F 42.1 °F 48% 29.84 in 10.0 mi NW 17.3 mph 24.2 mph N/A   Clear
6:53 PM 62.1 °F 39.0 °F 43% 29.86 in 10.0 mi WNW 13.8 mph 24.2 mph N/A   Clear
7:53 PM 60.1 °F 39.9 °F 47% 29.86 in 10.0 mi NW 6.9 mph - N/A   Clear
8:53 PM 57.0 °F 41.0 °F 55% 29.88 in 10.0 mi Calm Calm - N/A   Clear
9:53 PM 53.1 °F 41.0 °F 64% 29.89 in 10.0 mi Calm Calm - N/A   Clear
10:53 PM 51.1 °F 41.0 °F 68% 29.90 in 10.0 mi South 5.8 mph - N/A   Clear
11:53 PM 51.1 °F 41.0 °F 68% 29.90 in 10.0 mi South 6.9 mph - N/A   Clear